Tracking 28794 objects as of 19-Apr-2024
HD Live streaming from Space Station
objects crossing your sky now

THORAD AGENA D DEB *

Track THORAD AGENA D DEB * now!
10-day predictions


NORAD ID: 5387
Int'l Code: 1970-025KS
Perigee: 1,108.8 km
Apogee: 2,157.3 km
Inclination: 101.1 °
Period: 118.8 minutes
Semi major axis: 8004 km
RCS: 0.0932 m2 (small)
Launch date: April 8, 1970
Source: United States (US)
Launch site: AIR FORCE WESTERN TEST RANGE (AFWTR)

Note: This is SATELLITE DEBRIS
Your satellite tracking list
Your tracking list is empty




NASA's NSSDC Master Catalog

Two Line Element Set (TLE):
1 05387U 70025KS  24106.81215959  .00002232  00000-0  12463-1 0  9996
2 05387 101.1062 294.3825 0654975  37.5927 340.7639 12.12375600226399
Source of the keplerian elements: AFSPC